Regional Weather Roundup
Issued by NWS State College, PA

Home | Current Version | Previous Version | Text Only | Print | Product List | Glossary Off
Versions: 1 2 3 4 5 6 7 8 9 10 11 12 13 14 15 16 17 18 19 20 21 22 23 24 25 26 27 28 29 30 31 32 33 34 35 36 37 38 39 40 41 42 43 44 45 46 47 48 49 50

000
ASUS41 KCTP 280010
RWRCTP

REGIONAL WEATHER ROUNDUP
NATIONAL WEATHER SERVICE STATE COLLEGE PA
800 PM EDT SUN JUL 27 2014

Note: "fair" indicates few or no clouds below 12,000 feet with no
significant weather and/or obstructions to visibility.

* = STATION THAT DOES NOT REPORT PRECIPITATION /E.G. RAIN...SNOW...ETC/
    THUNDER OR FOG.

PAZ002>004-007>009-013>016-020>023-029>032-280100-
WESTERN PENNSYLVANIA

CITY           SKY/WX    TMP DP  RH WIND       PRES   REMARKS
ERIE           LGT RAIN  67  61  81 SE7       29.65F
MEADVILLE      LGT RAIN  63  59  87 VRB3      29.70F
FRANKLIN*      CLOUDY    61  57  88 E6        29.74F
NEW CASTLE       N/A     66  61  84 E5        29.70F
BEAVER COUNTY  NOT AVBL
BUTLER*        CLOUDY    70  66  88 N6        29.73S
PITTSBURGH INT CLOUDY    72  67  84 N5        29.70R
PITTSBURGH     CLOUDY    70  65  84 S9        29.70R
INDIANA*       CLOUDY    68  66  94 CALM      29.76R FOG
LATROBE        LGT RAIN  72  72 100 W9        29.72R
WASHINGTON CO* CLOUDY    72  68  88 CALM      29.72S
$$

PAZ004>006-010>012-017>019-024>028-033>037-041-042-045-046-049>053-280100-
CENTRAL PENNSYLVANIA

CITY           SKY/WX    TMP DP  RH WIND       PRES   REMARKS
BRADFORD       LGT RAIN  70  63  78 W5        29.73S
DUBOIS         TSTM      67  63  87 SE8       29.75R FOG
CLEARFIELD     LGT RAIN  67  64  90 S5        29.72F
JOHNSTOWN      CLOUDY    70  66  87 W6        29.75S
ALTOONA        CLOUDY    69  66  90 E6        29.72F
STATE COLLEGE  TSTM      64  64 100 W15G24    29.75R
WILLIAMSPORT   CLOUDY    80  64  58 W3        29.64S
SELINSGROVE    CLOUDY    80  67  64 S8        29.66R
FT INDIANTOWN  LGT RAIN  70  70 100 NW3       29.70F FOG
CAPITAL CITY   TSTM      67  62  84 W8        29.69F
HARRISBURG     TSTM      68  61  78 NE9       29.65F
YORK           CLOUDY    72  63  73 CALM      29.67F
$$

PAZ038>040-043-044-047-048-054-055-060>062-067>071-280100-
EASTERN PENNSYLVANIA

CITY           SKY/WX    TMP DP  RH WIND       PRES   REMARKS
SCRANTON       PTCLDY    82  62  50 VRB5      29.67S
MOUNT POCONO   MOCLDY    75  64  68 SW6       29.74F
ALLENTOWN      CLOUDY    84  65  52 S3        29.67F
QUAKERTOWN*    MOCLDY    81  70  69 CALM      29.70S
READING        CLOUDY    83  71  67 SE7       29.66F
LANCASTER      TSTM      74  67  78 NW14G21   29.69R
COATESVILLE    LGT RAIN  77  75  94 S3        29.71F
POTTSTOWN      CLOUDY    81  71  71 VRB3      29.70R
BLUE BELL      MOCLDY    82  72  69 S7        29.68F
DOYLESTOWN     MOCLDY    81  71  71 S6        29.68R
WILLOW GROVE   NOT AVBL
NORTH PHILA    MOCLDY    84  70  62 SW9       29.69S
PHILADELPHIA   MOCLDY    83  71  67 S13       29.68S
$$



USA.gov is the U.S. government's official web portal to all federal, state and local government web resources and services.